When you browse on this site, cookies collect data to enhance your experience and personalize the content and advertising you see.
Visit our Privacy Policy to learn more. By continuing to use the site, you agree to this use of cookies and data.
  • In Latvia
  • List of Countries
  • For 7 days
  • Water Temperature
  • Weather Map
  • Weather Widgets
  • user-avatar
    Login

    Hourly Weather Sergeycevo

    Today, 20 October, Sunday

    Time Temperature Precipitation Wind Pressure Humidity
    00:00 +12°C° 0 mm 1 mps 748 mmHg 97%
    01:00 +12°C° 0 mm 1 mps 748 mmHg 97%
    02:00 +12°C° 0 mm 1 mps 748 mmHg 96%
    03:00 +12°C° 0.1 mm 1 mps 748 mmHg 97%
    04:00 +11°C° 0.1 mm 0 mps 748 mmHg 97%
    05:00 +11°C° 0.1 mm 0 mps 748 mmHg 97%
    06:00 +11°C° 0 mm 0 mps 748 mmHg 97%
    07:00 +12°C° 0 mm 1 mps 749 mmHg 96%
    08:00 +12°C° 0 mm 1 mps 749 mmHg 96%
    09:00 +13°C° 0 mm 1 mps 749 mmHg 92%
    10:00 +14°C° 0 mm 1 mps 749 mmHg 88%
    11:00 +16°C° 0 mm 1 mps 749 mmHg 84%
    12:00 +16°C° 0 mm 1 mps 749 mmHg 83%
    13:00 +18°C° 0 mm 1 mps 749 mmHg 81%
    14:00 +18°C° 0 mm 1 mps 749 mmHg 82%
    15:00 +16°C° 0 mm 2 mps 749 mmHg 86%
    16:00 +16°C° 0 mm 2 mps 748 mmHg 91%
    17:00 +15°C° 0 mm 2 mps 748 mmHg 95%
    18:00 +14°C° 0 mm 2 mps 748 mmHg 95%
    19:00 +14°C° 0 mm 2 mps 748 mmHg 95%
    20:00 +13°C° 0 mm 3 mps 748 mmHg 95%
    21:00 +12°C° 0 mm 3 mps 748 mmHg 96%
    22:00 +12°C° 0 mm 3 mps 747 mmHg 96%
    23:00 +12°C° 0 mm 3 mps 747 mmHg 96%

    Tomorrow, 21 October, Monday

    Time Temperature Precipitation Wind Pressure Humidity
    00:00 +12°C° 0 mm 3 mps 747 mmHg 96%
    01:00 +12°C° 0 mm 3 mps 747 mmHg 96%
    02:00 +12°C° 0 mm 3 mps 747 mmHg 96%
    03:00 +12°C° 0 mm 3 mps 747 mmHg 96%
    04:00 +11°C° 0 mm 3 mps 747 mmHg 96%
    05:00 +11°C° 0 mm 3 mps 747 mmHg 96%
    06:00 +12°C° 0 mm 3 mps 747 mmHg 95%
    07:00 +12°C° 0 mm 3 mps 747 mmHg 94%
    08:00 +12°C° 0 mm 3 mps 748 mmHg 94%
    09:00 +13°C° 0.4 mm 2 mps 748 mmHg 93%
    10:00 +13°C° 0.4 mm 2 mps 748 mmHg 92%
    11:00 +14°C° 0.4 mm 2 mps 748 mmHg 91%
    12:00 +13°C° 0.3 mm 2 mps 749 mmHg 91%
    13:00 +13°C° 0.3 mm 2 mps 749 mmHg 90%
    14:00 +13°C° 0.3 mm 2 mps 750 mmHg 90%
    15:00 +12°C° 0.1 mm 2 mps 750 mmHg 91%
    16:00 +12°C° 0.1 mm 2 mps 750 mmHg 93%
    17:00 +10°C° 0.1 mm 2 mps 751 mmHg 94%
    18:00 +10°C° 0 mm 1 mps 751 mmHg 95%
    19:00 +10°C° 0 mm 1 mps 751 mmHg 95%
    20:00 +9°C° 0 mm 1 mps 752 mmHg 96%
    21:00 +8°C° 0 mm 1 mps 752 mmHg 96%
    22:00 +8°C° 0 mm 1 mps 752 mmHg 96%
    23:00 +7°C° 0 mm 1 mps 752 mmHg 95%

    Day after tomorrow, 22 October, Tuesday

    Time Temperature Precipitation Wind Pressure Humidity
    00:00 +6°C° 0 mm 0 mps 752 mmHg 95%
    01:00 +6°C° 0 mm 0 mps 753 mmHg 95%
    02:00 +5°C° 0 mm 0 mps 753 mmHg 94%
    03:00 +5°C° 0 mm 0 mps 753 mmHg 94%
    04:00 +5°C° 0 mm 0 mps 753 mmHg 94%
    05:00 +6°C° 0 mm 1 mps 753 mmHg 94%
    06:00 +6°C° 0 mm 1 mps 753 mmHg 95%
    07:00 +6°C° 0 mm 1 mps 753 mmHg 95%
    08:00 +6°C° 0 mm 2 mps 753 mmHg 96%
    09:00 +8°C° 0 mm 2 mps 753 mmHg 91%
    10:00 +9°C° 0 mm 2 mps 753 mmHg 87%
    11:00 +11°C° 0 mm 3 mps 753 mmHg 83%
    12:00 +12°C° 0 mm 3 mps 752 mmHg 83%
    13:00 +12°C° 0 mm 3 mps 752 mmHg 83%
    14:00 +13°C° 0 mm 4 mps 751 mmHg 84%
    15:00 +13°C° 0 mm 4 mps 751 mmHg 86%
    16:00 +13°C° 0 mm 4 mps 750 mmHg 88%
    17:00 +13°C° 0 mm 4 mps 750 mmHg 91%
    18:00 +13°C° 0 mm 4 mps 750 mmHg 92%
    19:00 +12°C° 0 mm 4 mps 750 mmHg 93%
    20:00 +12°C° 0 mm 4 mps 750 mmHg 93%
    21:00 +12°C° 0 mm 3 mps 750 mmHg 94%
    22:00 +12°C° 0 mm 3 mps 749 mmHg 95%
    23:00 +12°C° 0 mm 2 mps 749 mmHg 96%

    23 October, Wednesday

    Time Temperature Precipitation Wind Pressure Humidity
    00:00 +11°C° 0 mm 3 mps 749 mmHg 96%
    01:00 +11°C° 0 mm 3 mps 749 mmHg 97%
    02:00 +11°C° 0 mm 3 mps 749 mmHg 97%
    03:00 +11°C° 0 mm 3 mps 749 mmHg 97%
    04:00 +12°C° 0 mm 2 mps 749 mmHg 97%
    05:00 +10°C° 0 mm 2 mps 748 mmHg 96%
    06:00 +10°C° 0 mm 2 mps 748 mmHg 96%
    07:00 +10°C° 0 mm 2 mps 748 mmHg 95%
    08:00 +10°C° 0 mm 2 mps 748 mmHg 95%
    09:00 +10°C° 0 mm 2 mps 748 mmHg 91%
    10:00 +10°C° 0 mm 2 mps 748 mmHg 88%
    11:00 +10°C° 0 mm 2 mps 748 mmHg 84%
    12:00 +12°C° 0 mm 2 mps 749 mmHg 83%
    13:00 +11°C° 0 mm 3 mps 749 mmHg 82%
    14:00 +11°C° 0 mm 3 mps 749 mmHg 80%
    15:00 +12°C° 0 mm 2 mps 749 mmHg 83%
    16:00 +12°C° 0 mm 2 mps 749 mmHg 85%
    17:00 +11°C° 0 mm 1 mps 749 mmHg 87%
    18:00 +11°C° 0 mm 1 mps 749 mmHg 87%
    19:00 +10°C° 0 mm 2 mps 750 mmHg 88%
    20:00 +10°C° 0 mm 2 mps 750 mmHg 88%
    21:00 +9°C° 0 mm 2 mps 750 mmHg 90%
    22:00 +9°C° 0 mm 1 mps 750 mmHg 91%
    23:00 +9°C° 0 mm 1 mps 750 mmHg 92%

    24 October, Thursday

    Time Temperature Precipitation Wind Pressure Humidity
    00:00 +8°C° 0 mm 1 mps 750 mmHg 93%
    01:00 +8°C° 0 mm 1 mps 750 mmHg 94%
    02:00 +8°C° 0 mm 1 mps 750 mmHg 95%
    03:00 +7°C° 0 mm 1 mps 751 mmHg 96%
    04:00 +7°C° 0 mm 1 mps 751 mmHg 96%
    05:00 +7°C° 0 mm 1 mps 751 mmHg 97%
    06:00 +7°C° 0 mm 1 mps 751 mmHg 96%
    07:00 +7°C° 0 mm 1 mps 751 mmHg 96%
    08:00 +7°C° 0 mm 1 mps 751 mmHg 96%
    09:00 +8°C° 0 mm 1 mps 751 mmHg 90%
    10:00 +9°C° 0 mm 1 mps 751 mmHg 85%
    11:00 +11°C° 0 mm 1 mps 751 mmHg 79%
    12:00 +11°C° 0 mm 1 mps 751 mmHg 77%
    13:00 +12°C° 0 mm 1 mps 751 mmHg 76%
    14:00 +12°C° 0 mm 1 mps 751 mmHg 74%
    15:00 +11°C° 0 mm 1 mps 751 mmHg 79%
    16:00 +10°C° 0 mm 1 mps 751 mmHg 84%
    17:00 +9°C° 0 mm 1 mps 751 mmHg 89%
    18:00 +8°C° 0 mm 1 mps 751 mmHg 90%
    19:00 +8°C° 0 mm 1 mps 751 mmHg 91%
    20:00 +8°C° 0 mm 1 mps 751 mmHg 91%
    21:00 +8°C° 0 mm 1 mps 751 mmHg 92%
    22:00 +7°C° 0 mm 1 mps 751 mmHg 92%
    23:00 +7°C° 0 mm 1 mps 751 mmHg 92%

    25 October, Friday

    Time Temperature Precipitation Wind Pressure Humidity
    00:00 +6°C° 0 mm 2 mps 751 mmHg 92%
    01:00 +6°C° 0 mm 2 mps 751 mmHg 93%
    02:00 +6°C° 0 mm 2 mps 751 mmHg 94%
    03:00 +6°C° 0 mm 2 mps 751 mmHg 94%
    04:00 +6°C° 0 mm 2 mps 751 mmHg 95%
    05:00 +6°C° 0 mm 2 mps 750 mmHg 95%
    06:00 +6°C° 0 mm 2 mps 750 mmHg 95%
    07:00 +5°C° 0 mm 3 mps 750 mmHg 94%
    08:00 +7°C° 0 mm 3 mps 750 mmHg 93%
    09:00 +8°C° 0 mm 3 mps 750 mmHg 87%
    10:00 +8°C° 0 mm 4 mps 750 mmHg 81%
    11:00 +11°C° 0 mm 4 mps 750 mmHg 75%
    12:00 +12°C° 0 mm 4 mps 749 mmHg 75%
    13:00 +12°C° 0 mm 4 mps 749 mmHg 74%
    14:00 +13°C° 0 mm 4 mps 749 mmHg 74%
    15:00 +12°C° 0 mm 4 mps 748 mmHg 78%
    16:00 +11°C° 0 mm 4 mps 748 mmHg 83%
    17:00 +10°C° 0 mm 4 mps 748 mmHg 87%
    18:00 +10°C° 0 mm 3 mps 748 mmHg 89%
    19:00 +10°C° 0 mm 3 mps 748 mmHg 90%
    20:00 +10°C° 0 mm 3 mps 748 mmHg 92%
    21:00 +9°C° 0 mm 3 mps 748 mmHg 92%
    22:00 +9°C° 0 mm 3 mps 748 mmHg 93%
    23:00 +9°C° 0 mm 3 mps 748 mmHg 94%
    Show more